User: anonymous   Login
Location: NJAA Observatory
(40.6819°N, 74.8979°W)
Time: 11:58:54
(UTC-05:00)
Language:

Cosmos 1328 Rocket - Orbit

View from above orbital plane
View from above orbital plane
View from above satellite
View from above satellite

Ground track
Ground track

The orbit data is extracted from the following two-line orbital elements,

1 12988U 81117B   14355.18074735  .00000865  00000-0  10024-3 0  2407
2 12988 082.5235 205.7890 0017275 334.1284 165.4289 14.84245084784951
Epoch (UTC): 21 December 2014 04:20:16
Eccentricity: 0.0017275
inclination: 82.5235°
perigee height: 604 km
apogee height: 628 km
right ascension of ascending node: 205.7890°
argument of perigee: 334.1284°
revolutions per day: 14.84245084
mean anomaly at epoch: 165.4289°
orbit number at epoch: 78495

The dashed part of the orbit path shows where the satellite is in the earth's shadow,  

DLR